This demonstration page uses our WeatherBlox Daily Observations layout. Learn more.

Left ArrowRight Arrow

Hourly Observations for May 15, 2022

Temp ( °F °C ) Dew Point ( °F °C ) Humidity (%) Winds ( mph kmh ) Pressure ( in mb ) Visibility ( mi km ) Precip ( " mm )
12:15 am 00:15 undefined 60 15.3 59 14.8 97 97 Calm 29.96 1015 10 16 0.00 0.00
12:35 am 00:35 undefined 59 14.9 58 14.6 98 98 Calm 29.96 1015 10 16 0.00 0.00
12:55 am 00:55 undefined 58 14.6 58 14.3 98 98 Calm 29.96 1015 10 16 0.00 0.00
1:15 am 01:15 undefined 59 14.8 58 14.5 98 98 Calm 29.95 1014 10 16 0.00 0.00
1:35 am 01:35 undefined 57 14 57 13.7 98 98 W 5 7 29.96 1014 10 16 0.00 0.00
1:55 am 01:55 undefined 57 14.1 57 13.9 99 99 Calm 29.96 1014 10 16 0.00 0.00
2:15 am 02:15 undefined 57 14 57 13.7 98 98 Calm 29.95 1014 10 16 0.00 0.00
2:35 am 02:35 undefined 57 13.7 56 13.4 98 98 Calm 29.95 1014 10 16 0.00 0.00
2:55 am 02:55 undefined 56 13.3 56 13.1 99 99 Calm 29.94 1014 7 11 0.00 0.00
3:15 am 03:15 undefined 56 13.3 56 13.1 99 99 Calm 29.94 1014 10 16 0.00 0.00
3:35 am 03:35 undefined 56 13.4 56 13.2 99 99 Calm 29.93 1014 10 16 0.00 0.00
3:55 am 03:55 undefined 56 13.1 55 12.8 98 98 WSW 3 6 29.92 1013 10 16 0.00 0.00
4:15 am 04:15 undefined 56 13.3 55 12.8 97 97 Calm 29.92 1013 10 16 0.00 0.00
4:35 am 04:35 undefined 56 13.5 55 12.8 96 96 Calm 29.93 1013 10 16 0.00 0.00
4:55 am 04:55 undefined 55 13 54 12.3 96 96 W 3 6 29.93 1014 10 16 0.00 0.00
5:15 am 05:15 undefined 54 12.2 53 11.7 97 97 SW 5 7 29.93 1014 10 16 0.00 0.00
5:35 am 05:35 undefined 55 12.9 54 12 94 94 W 6 9 29.94 1014 10 16 0.00 0.00
5:55 am 05:55 undefined 55 12.9 54 12.1 95 95 Calm 29.94 1014 10 16 0.00 0.00
6:15 am 06:15 undefined 55 12.8 53 11.9 94 94 W 5 7 29.95 1014 10 16 0.00 0.00
6:35 am 06:35 undefined 56 13.2 55 12.7 97 97 WSW 5 7 29.95 1014 10 16 0.00 0.00
6:55 am 06:55 undefined 56 13.2 55 12.8 97 97 W 5 7 29.95 1014 10 16 0.00 0.00
7:15 am 07:15 undefined 58 14.2 57 13.7 97 97 W 3 6 29.96 1014 10 16 0.00 0.00
7:35 am 07:35 undefined 58 14.5 57 14 97 97 Calm 29.96 1014 10 16 0.00 0.00
7:55 am 07:55 undefined 60 15.4 58 14.6 95 95 Calm 29.95 1014 10 16 0.00 0.00
8:15 am 08:15 undefined 62 16.4 59 15.1 92 92 Calm 29.94 1014 10 16 0.00 0.00
8:35 am 08:35 undefined 63 17 59 15.1 89 89 W 5 7 29.95 1014 10 16 0.00 0.00
8:55 am 08:55 undefined 65 18.5 61 15.9 85 85 Calm 29.94 1014 10 16 0.00 0.00
9:15 am 09:15 undefined 67 19.4 62 16.4 83 83 W 6 9 29.95 1014 10 16 0.00 0.00
9:35 am 09:35 undefined 69 20.5 62 16.7 79 79 WSW 5 7 29.94 1014 10 16 0.00 0.00
9:55 am 09:55 undefined 71 21.5 63 17.2 77 77 W 6 9 29.94 1014 10 16 0.00 0.00
10:15 am 10:15 undefined 71 21.9 63 17.4 76 76 WSW 3 6 29.94 1014 10 16 0.00 0.00
10:35 am 10:35 undefined 72 22.3 63 17.1 73 73 NW 8 13 29.94 1014 10 16 0.00 0.00
10:55 am 10:55 undefined 74 23.1 63 17.2 70 70 W 7 11 29.94 1014 10 16 0.00 0.00
11:15 am 11:15 undefined 74 23.5 63 17.3 68 68 WNW 6 9 29.92 1013 10 16 0.00 0.00
11:35 am 11:35 undefined 75 23.9 63 17.1 66 66 NW 7 11 29.91 1013 10 16 0.00 0.00
11:55 am 11:55 undefined 76 24.7 62 16.5 60 60 WNW 5 7 29.90 1013 10 16 0.00 0.00
12:15 pm 12:15 undefined 77 25.1 62 16.4 59 59 NW 5 7 29.90 1013 10 16 0.00 0.00
12:35 pm 12:35 undefined 78 25.7 62 16.8 58 58 W 7 11 29.92 1013 10 16 0.00 0.00
12:55 pm 12:55 undefined 79 26.3 62 16.4 55 55 W 5 7 29.91 1013 10 16 0.00 0.00
1:15 pm 13:15 undefined 81 27 60 15.6 50 50 W 8 13 29.89 1012 10 16 0.00 0.00
1:35 pm 13:35 undefined 81 27.3 58 14.7 46 46 WNW 3 6 29.88 1012 10 16 0.00 0.00
1:55 pm 13:55 undefined 82 27.9 56 13.2 40 40 W 7 11 29.86 1011 10 16 0.00 0.00
2:15 pm 14:15 undefined 82 27.9 55 12.6 39 39 W 8 13 29.85 1011 10 16 0.00 0.00
2:35 pm 14:35 undefined 83 28.3 53 11.9 36 36 WSW 6 9 29.85 1011 10 16 0.00 0.00
2:55 pm 14:55 undefined 83 28.6 51 10.3 32 32 SW 6 9 29.84 1010 10 16 0.00 0.00
3:15 pm 15:15 undefined 84 29 52 11 33 33 Calm 29.84 1010 10 16 0.00 0.00
3:35 pm 15:35 undefined 84 28.8 52 11 33 33 WSW 9 15 29.84 1010 10 16 0.00 0.00
3:55 pm 15:55 undefined 83 28.6 50 9.9 31 31 Calm 29.83 1010 10 16 0.00 0.00
4:15 pm 16:15 undefined 83 28.3 49 9.4 31 31 Calm 29.82 1010 10 16 0.00 0.00
4:35 pm 16:35 undefined 82 27.6 53 11.5 37 37 WSW 10 17 29.81 1010 10 16 0.00 0.00
4:55 pm 16:55 undefined 83 28.3 52 11 34 34 SW 8 13 29.79 1009 10 16 0.00 0.00
5:15 pm 17:15 undefined 80 26.5 49 9.6 35 35 WSW 7 11 29.78 1008 10 16 0.00 0.00
5:35 pm 17:35 undefined 78 25.7 55 12.6 44 44 SW 5 7 29.78 1008 10 16 0.00 0.00
5:55 pm 17:55 undefined 78 25.6 55 12.6 44 44 Calm 29.78 1008 10 16 0.00 0.00
6:15 pm 18:15 undefined 76 24.5 57 13.9 52 52 Calm 29.78 1009 10 16 0.00 0.00
6:35 pm 18:35 Partly Cloudy with Thunderstorms 76 24.3 56 13.6 51 51 Calm 29.79 1009 10 16 0.00 0.00
6:55 pm 18:55 undefined 72 22 55 12.9 56 56 NW 14 22 29.82 1010 10 16 0.00 0.00
7:15 pm 19:15 undefined 70 21.1 56 13.2 61 61 WNW 12 19 29.83 1010 10 16 0.00 0.00
7:35 pm 19:35 undefined 69 20.7 56 13.1 62 62 NW 9 15 29.83 1010 10 16 0.00 0.00
7:55 pm 19:55 undefined 68 20 56 13.3 65 65 NNW 8 13 29.83 1010 10 16 0.00 0.00
8:15 pm 20:15 undefined 67 19.5 56 13.5 68 68 NNW 9 15 29.82 1010 10 16 0.00 0.00
8:35 pm 20:35 undefined 66 19.1 57 14.1 73 73 N 13 20 29.79 1009 10 16 0.00 0.00
8:55 pm 20:55 undefined 65 18.5 58 14.3 77 77 Calm 29.81 1010 10 16 0.00 0.00
9:15 pm 21:15 undefined 65 18.2 58 14.2 78 78 Calm 29.81 1010 10 16 0.00 0.00
9:35 pm 21:35 undefined 64 18 58 14.5 80 80 Calm 29.84 1011 10 16 0.00 0.00
9:55 pm 21:55 Mostly Clear with Light Rain 64 17.7 59 14.9 84 84 Calm 29.85 1011 10 16 0.00 0.00
10:15 pm 22:15 Mostly Clear with Rain 64 17.5 59 15 85 85 NW 8 13 29.86 1011 10 16 0.00 0.00
10:35 pm 22:35 Mostly Clear with Light Rain 63 17.1 59 14.8 86 86 NNW 9 15 29.89 1012 10 16 0.02 0.51
10:55 pm 22:55 Mostly Clear with Light Rain 61 16.2 56 13.6 85 85 NNW 10 17 29.90 1012 10 16 0.05 1.27
11:15 pm 23:15 Mostly Clear with Rain 60 15.8 56 13.4 86 86 Calm 29.94 1014 7 11 0.03 0.76
11:35 pm 23:35 Mostly Clear with Rain 60 15.3 57 13.7 90 90 N 10 17 29.92 1013 7 11 0.09 2.29
11:55 pm 23:55 Mostly Clear with Rain 58 14.7 56 13.1 90 90 NNW 7 11 29.91 1013 10 16 0.13 3.30

Powered by AerisWeather